Regional Weather Roundup
Issued by NWS

Home | Current Version | Previous Version | Graphics & Text | Print | Product List | Glossary On
Versions: 1 2 3 4 5 6 7 8 9 10 11 12 13 14 15 16 17 18 19 20 21 22 23 24 25 26 27 28 29 30 31 32 33 34 35 36 37 38 39 40 41 42 43 44 45 46 47 48 49 50
000
ASUS43 KDMX 241203
RWRIA

WEATHER ROUNDUP FOR IOWA
NATIONAL WEATHER SERVICE DES MOINES IA
700 AM CDT WED AUG 24 2016

NOTE: "FAIR" INDICATES FEW OR NO CLOUDS BELOW 12,000 FEET WITH NO
SIGNIFICANT WEATHER AND/OR OBSTRUCTIONS TO VISIBILITY.

* - THESE STATIONS ARE NOT NWS STATIONS...THUS NOT UNDER NWS
QUALITY CONTROL.  THEY ALSO DO NOT REPORT WEATHER SUCH
AS PRECIPITATION OR FOG.

IAZ001>003-012>014-020>022-031>034-043>046-241300-
   NORTHWEST IOWA

CITY           SKY/WX    TMP DP  RH WIND       PRES   REMARKS
CARROLL *      CLEAR     66  64  94 W10       29.90R
CHEROKEE *     CLOUDY    67  67 100 W3        29.90R FOG
DENISON *      PTCLDY    64  64 100 W6        29.90R FOG
LE MARS *      CLEAR     66  64  94 NW6       29.94R
ORANGE CITY *  CLEAR     66  64  94 NW9       29.93R
SHELDON *      CLEAR     66  66 100 NW7       29.91R FOG
SIOUX CITY     CLOUDY    67  63  87 NW7       29.93R
6HR MIN TEMP:  67; 6HR MAX TEMP:  72;

SPENCER        PTCLDY    67  65  93 W8        29.89R FOG
6HR MIN TEMP:  66; 6HR MAX TEMP:  71; 6HR PCP:  0.12;

STORM LAKE *   CLOUDY    66  66 100 W9        29.90R FOG
$$

IAZ055>058-069>071-079>083-090>094-241300-
   SOUTHWEST IOWA

CITY           SKY/WX    TMP DP  RH WIND       PRES   REMARKS
ATLANTIC *     PTCLDY    64  63  94 SW6       29.92R
AUDUBON *      CLEAR     64  61  88 SW3       29.93R
CLARINDA *       N/A     63  63 100 MISG      29.95R
COUNCIL BLFS * MOCLDY    66  64  94 SW5       29.94R
CRESTON *      CLEAR     64  63  94 CALM      29.95R
HARLAN  *      PTCLDY    64  64 100 SW3       29.95R
LAMONI         PTCLDY    63  63 100 NE3       29.94R
6HR MIN TEMP:  63; 6HR MAX TEMP:  76; 6HR PCP:  0.76;

RED OAK *      MOCLDY    63  61  94 CALM      29.94R
SHENANDOAH *   PTCLDY    63 N/A N/A NE3       29.94R
$$

IAZ047>049-059>061-072>074-084-241300-
   CENTRAL IOWA

CITY           SKY/WX    TMP DP  RH WIND       PRES   REMARKS
AMES           PTCLDY    66  66 100 SW5       29.88R
6HR MIN TEMP:  66; 6HR MAX TEMP:  76; 6HR PCP:  0.08;

ANKENY *         N/A    N/A N/A N/A MISG        N/A
BOONE *        PTCLDY    66  64  94 SW6       29.88R
CHARITON *       N/A     64  64 100 MISG      29.93R
DES MOINES     PTCLDY    68  65  90 SW7       29.89R
6HR MIN TEMP:  68; 6HR MAX TEMP:  78; 6HR PCP:  0.12;

GRINNELL*      MOCLDY    68  66  93 SW3       29.90R
KNOXVILLE *    PTCLDY    66  64  94 SW7       29.91R
MARSHALLTOWN   MOCLDY    70  70 100 S5        29.86R
6HR MIN TEMP:  70; 6HR MAX TEMP:  75; 6HR PCP:  0.02;

NEWTON *       MOCLDY    68  68 100 W8        29.90R
PERRY *          N/A     64  64  99 S3        29.89R
$$

IAZ004>006-015-016-023>025-035-036-241300-
   NORTH CENTRAL IOWA

CITY           SKY/WX    TMP DP  RH WIND       PRES   REMARKS
ALGONA *       MOCLDY    68  66  94 W12       29.87R
ESTHERVILLE    CLOUDY    66  66 100 W7        29.88R
6HR MIN TEMP:  66; 6HR MAX TEMP:  71;

FORT DODGE *   MOCLDY    66  63  88 W5        29.90R
MASON CITY     CLOUDY    73  71  93 W8        29.87R
6HR MIN TEMP:  69; 6HR MAX TEMP:  73;

FOREST CITY *    N/A    N/A N/A N/A MISG        N/A
WEBSTER CITY * PTCLDY    68  66  94 W5        29.86R
IOWA FALLS *     N/A     70  67  90 W7        29.87R
$$

IAZ007>011-017>019-026>030-037>042-050>054-066-241300-
   NORTHEAST IOWA

CITY           SKY/WX    TMP DP  RH WIND       PRES   REMARKS
CEDAR RAPIDS   CLOUDY    72  72 100 S8        29.89R FOG
6HR MIN TEMP:  72; 6HR MAX TEMP:  73; 6HR PCP:  0.34;

CHARLES CITY * CLOUDY    72  72 100 S5        29.87R FOG
CLINTON *      CLOUDY    71  71 100 S6        29.93F
DECORAH *      CLOUDY    66  66 100 S7G15     29.88R
DUBUQUE        CLOUDY    67  67 100 NE8       29.95S FOG
6HR MIN TEMP:  67; 6HR MAX TEMP:  71; 6HR PCP:  0.12;

MONTICELLO *   CLOUDY    72  70  94 E8        29.91R
OELWEIN *      CLOUDY    72  70  94 SE6       29.89R
WATERLOO       PTCLDY    72  70  93 S7        29.87R
6HR MIN TEMP:  71; 6HR MAX TEMP:  75;

$$

IAZ064-065-067-068-078-241300-
   EAST CENTRAL IOWA

CITY           SKY/WX    TMP DP  RH WIND       PRES   REMARKS
DAVENPORT      CLOUDY    72  70  93 SE8       29.93R
6HR MIN TEMP:  71; 6HR MAX TEMP:  73; 6HR PCP:  1.51;

IOWA CITY      CLOUDY    73  72  96 S9        29.92R
6HR MIN TEMP:  73; 6HR MAX TEMP:  74; 6HR PCP:  0.22;

MT. PLEASANT * MOCLDY    75  75 100 SW6       29.92R
MUSCATINE *    CLOUDY    73  72  94 SE5       29.93R
QUAD CITIES    CLOUDY    73  71  93 E8        29.94R
6HR MIN TEMP:  72; 6HR MAX TEMP:  74; 6HR PCP:  0.74;

$$

IAZ062-063-075>077-085>089-095>099-241300-
   SOUTHEAST IOWA

CITY           SKY/WX    TMP DP  RH WIND       PRES   REMARKS
BURLINGTON     CLOUDY    74  73  97 SW7       29.92R
6HR MIN TEMP:  72; 6HR MAX TEMP:  74;

FAIRFIELD *    CLOUDY    73  70  88 W10G17    29.90S
FORT MADISON * CLOUDY    73  72  94 S7        29.91R
KEOKUK *       CLOUDY    75  72  88 S13G23    29.87F
OSKALOOSA *      N/A     67  66  95 SW7       29.92R
CENTERVILLE *    N/A     66  66 100 W5        29.95R
OTTUMWA        MOCLDY    68  66  93 SW6       29.91R
6HR MIN TEMP:  68; 6HR MAX TEMP:  75; 6HR PCP:  0.06;

WASHINGTON *   CLOUDY    73  72  94 SE5       29.92R
$$

ABBREVIATIONS USED IN REMARKS
   TC - TEMPERATURES IN CELSIUS
  WCI - WIND CHILL INDEX
   HX - HEAT INDEX
  VSB - VISIBILITY
$$





USA.gov is the U.S. government's official web portal to all federal, state and local government web resources and services.